星链-4361 (STARLINK-4361 )

导读 | 豆包AI

STARLINK-4361是美国SpaceX公司星链星座的成员,于2022年8月12日由猎鹰9号火箭在Group 4-16任务中发射,属于第一代V1.5批次卫星。卫星净重275千克,总质量297千克,当前运行在约548千米的近地轨道,飞行速度约7.59千米/秒。 作为星链低轨宽带通信卫星,它配备相控阵天线与氪离子推进系统,为全球偏远地区提供高速低延迟互联网服务,单星设计寿命约5年,退役后将主动离轨在大气层中烧毁,减少空间垃圾。

基本信息
目录编号:
53493
目录名称:
STARLINK-4361
国际标识:
2022-099AE
轨道中心:
EARTH
卫星名称:
星链-4361
卫星全名:
星链-4361 (STARLINK-4361 )
卫星状态:
在轨 (已飞行1311 天)
发射日期:
2022-08-12 UTC
国别 :
美国 (US)
星等 :
--
轨道信息
数据来源 国际轨道数据
星历时间: 2026-03-15T06:00:02+0800
10小时前
查看轨道信息
半长轴: 6662.085km
偏心率: 0.0001766
轨道倾角: 97.644°
近地点辐角 129.765°
升交点赤经 214.493°
平近点角 183.005°
近地点: 282.771km
远地点: 285.125km
周期: 90.193分钟
每日圈数: 15.965685
详细信息
固有亮度:
5
最大亮度:
2.5
卫星平台:
Starlink v1.5
覆盖范围:
全球
运营商:
太空探索技术公司
运营商所在国:
美国
制造商(研发单位):
太空探索技术公司
制造商所在国:
美国
使用方式:
暂无
卫星简介
星链(Starlink)计划是由太空探索技术公司(SpaceX)提出的一个巨型低轨卫星互联网星座项目,计划在2019年至2024年间在太空搭建由约1.2万颗卫星组成的“星链”网络,其中1584颗将部署在地球上空550千米处的近地轨道,并从2020年开始工作。该卫星仍在工作。
2D轨道图
3D轨道图
轨道高度分析图
轨道倾角分析图
轨道综合分析图
查看轨道综合分析图